CST358C KFAT-KSAN

Flight info

Callsign CST358C
Flight time N/A
Altitude 35000
Route LHS V459 SLI V23 MZB
Aircraft A320/M-SDE3FGHIRWY/LB1

Departure

Time 2026-04-21 19:10
Airport Fresno Yosemite International Airport (KFAT)

Arrival

Time N/A
Airport San Diego International Airport (KSAN)
Time Latitude Longitude Altitude Speed Heading
2026-04-21 18:50 36.77201 -119.71797 337 ft 0 kts 232°
2026-04-21 19:02 36.77204 -119.71792 335 ft 4 kts 231°
2026-04-21 19:02 36.77218 -119.71771 335 ft 3 kts 230°
2026-04-21 19:03 36.77232 -119.71745 336 ft 4 kts 263°
2026-04-21 19:03 36.77227 -119.71720 340 ft 4 kts 305°
2026-04-21 19:03 36.77220 -119.71707 335 ft 0 kts 305°
2026-04-21 19:04 36.77222 -119.71711 335 ft 2 kts 305°
2026-04-21 19:05 36.77235 -119.71733 339 ft 4 kts 305°
2026-04-21 19:05 36.77258 -119.71773 337 ft 7 kts 305°
2026-04-21 19:05 36.77296 -119.71828 338 ft 10 kts 338°
2026-04-21 19:05 36.77364 -119.71847 340 ft 11 kts 306°
2026-04-21 19:06 36.77415 -119.71934 339 ft 14 kts 306°
2026-04-21 19:06 36.77474 -119.72036 340 ft 16 kts 306°
2026-04-21 19:06 36.77543 -119.72154 338 ft 18 kts 306°
2026-04-21 19:06 36.77618 -119.72286 337 ft 20 kts 305°
2026-04-21 19:07 36.77700 -119.72434 337 ft 22 kts 305°
2026-04-21 19:07 36.77789 -119.72593 340 ft 23 kts 305°
2026-04-21 19:07 36.77889 -119.72763 341 ft 25 kts 306°
2026-04-21 19:07 36.77996 -119.72946 337 ft 27 kts 304°
2026-04-21 19:08 36.78069 -119.73077 336 ft 28 kts 304°
2026-04-21 19:08 36.78171 -119.73205 338 ft 12 kts
2026-04-21 19:08 36.78214 -119.73160 338 ft 9 kts 39°
2026-04-21 19:08 36.78276 -119.73104 336 ft 12 kts 35°
2026-04-21 19:09 36.78349 -119.73039 338 ft 14 kts 35°
2026-04-21 19:09 36.78367 -119.72954 337 ft 11 kts 136°
2026-04-21 19:09 36.78317 -119.72863 340 ft 22 kts 126°
2026-04-21 19:09 36.78082 -119.72452 339 ft 91 kts 125°
2026-04-21 19:10 36.77606 -119.71621 343 ft 142 kts 126°
2026-04-21 19:10 36.76983 -119.70536 687 ft 158 kts 126°
2026-04-21 19:10 36.76310 -119.69423 1448 ft 163 kts 129°
2026-04-21 19:10 36.75613 -119.68272 1910 ft 177 kts 131°
2026-04-21 19:11 36.74604 -119.67273 2217 ft 196 kts 154°
2026-04-21 19:11 36.73306 -119.66533 2606 ft 215 kts 160°
2026-04-21 19:11 36.71875 -119.65817 3244 ft 225 kts 162°
2026-04-21 19:11 36.70384 -119.65076 3862 ft 240 kts 161°
2026-04-21 19:12 36.68777 -119.64263 4546 ft 254 kts 161°
2026-04-21 19:12 36.67138 -119.63412 5486 ft 256 kts 161°
2026-04-21 19:12 36.65495 -119.62539 6476 ft 257 kts 162°
2026-04-21 19:12 36.63854 -119.61652 7409 ft 257 kts 161°
2026-04-21 19:13 36.62209 -119.60756 8321 ft 258 kts 161°
2026-04-21 19:13 36.60587 -119.59868 9244 ft 259 kts 161°
2026-04-21 19:13 36.58935 -119.58965 10137 ft 260 kts 160°
2026-04-21 19:13 36.57216 -119.58032 10477 ft 281 kts 160°
2026-04-21 19:14 36.55351 -119.57024 10686 ft 304 kts 160°
2026-04-21 19:14 36.53346 -119.55940 10936 ft 322 kts 160°
2026-04-21 19:14 36.51270 -119.54812 11534 ft 328 kts 160°
2026-04-21 19:14 36.49169 -119.53668 12209 ft 331 kts 159°
2026-04-21 19:15 36.47055 -119.52515 12979 ft 333 kts 159°
2026-04-21 19:15 36.44929 -119.51353 13737 ft 335 kts 159°
2026-04-21 19:15 36.42787 -119.50186 14405 ft 337 kts 159°
2026-04-21 19:15 36.40625 -119.49010 15026 ft 340 kts 160°
2026-04-21 19:16 36.38445 -119.47825 15611 ft 343 kts 160°
2026-04-21 19:16 36.36245 -119.46632 16190 ft 346 kts 161°
2026-04-21 19:16 36.34054 -119.45448 16793 ft 349 kts 161°
2026-04-21 19:16 36.31814 -119.44238 17423 ft 352 kts 161°
2026-04-21 19:17 36.27282 -119.41783 18662 ft 359 kts 162°
2026-04-21 19:17 36.24987 -119.40540 19238 ft 361 kts 162°
2026-04-21 19:17 36.22673 -119.39288 19815 ft 364 kts 162°
2026-04-21 19:18 36.20346 -119.38031 20381 ft 366 kts 163°
2026-04-21 19:18 36.17999 -119.36768 20869 ft 369 kts 164°
2026-04-21 19:18 36.15632 -119.35496 21359 ft 372 kts 164°
2026-04-21 19:18 36.13242 -119.34213 21842 ft 375 kts 164°
2026-04-21 19:19 36.10838 -119.32922 22305 ft 378 kts 165°
2026-04-21 19:19 36.08418 -119.31621 22756 ft 380 kts 165°
2026-04-21 19:19 36.05980 -119.30309 23205 ft 383 kts 165°
2026-04-21 19:19 36.03533 -119.28992 23633 ft 385 kts 165°
2026-04-21 19:20 36.01064 -119.27670 23972 ft 388 kts 166°
2026-04-21 19:20 35.98568 -119.26339 24231 ft 393 kts 167°
2026-04-21 19:20 35.96037 -119.24989 24533 ft 397 kts 166°
2026-04-21 19:20 35.93499 -119.23628 24854 ft 398 kts 166°
2026-04-21 19:21 35.90987 -119.22277 25182 ft 400 kts 166°
2026-04-21 19:21 35.88431 -119.20903 25507 ft 402 kts 166°
2026-04-21 19:21 35.85853 -119.19521 25844 ft 404 kts 166°
2026-04-21 19:21 35.83267 -119.18140 26189 ft 406 kts 166°
2026-04-21 19:22 35.80658 -119.16753 26479 ft 410 kts 167°
2026-04-21 19:22 35.78025 -119.15356 26756 ft 413 kts 167°
2026-04-21 19:22 35.75377 -119.13948 27064 ft 416 kts 166°
2026-04-21 19:22 35.72715 -119.12527 27383 ft 418 kts 166°
2026-04-21 19:23 35.70037 -119.11095 27699 ft 420 kts 166°
2026-04-21 19:23 35.67353 -119.09664 28088 ft 420 kts 166°
2026-04-21 19:23 35.64670 -119.08236 28551 ft 419 kts 167°
2026-04-21 19:23 35.61995 -119.06814 28952 ft 419 kts 167°
2026-04-21 19:24 35.59311 -119.05391 29272 ft 421 kts 167°
2026-04-21 19:24 35.56620 -119.03964 29679 ft 421 kts 167°
2026-04-21 19:24 35.53933 -119.02538 30138 ft 421 kts 167°
2026-04-21 19:24 35.51277 -119.01128 30526 ft 420 kts 167°
2026-04-21 19:25 35.48595 -118.99706 30892 ft 420 kts 167°
2026-04-21 19:25 35.45905 -118.98285 31264 ft 420 kts 167°
2026-04-21 19:25 35.43218 -118.96867 31625 ft 421 kts 168°
2026-04-21 19:25 35.40525 -118.95446 31912 ft 422 kts 167°
2026-04-21 19:26 35.37836 -118.94024 32348 ft 421 kts 167°
2026-04-21 19:26 35.35150 -118.92608 32735 ft 420 kts 167°
2026-04-21 19:26 35.32465 -118.91196 33116 ft 420 kts 167°
2026-04-21 19:26 35.29776 -118.89785 33505 ft 420 kts 167°
2026-04-21 19:27 35.27079 -118.88367 33892 ft 420 kts 167°
2026-04-21 19:27 35.24392 -118.86954 34250 ft 420 kts 167°
2026-04-21 19:27 35.21702 -118.85541 34509 ft 421 kts 168°
2026-04-21 19:27 35.19005 -118.84131 34799 ft 422 kts 168°
2026-04-21 19:28 35.16298 -118.82713 35000 ft 424 kts 168°
2026-04-21 19:28 35.13570 -118.81287 35054 ft 429 kts 168°
2026-04-21 19:28 35.08084 -118.78418 35062 ft 433 kts 167°
2026-04-21 19:29 35.02546 -118.75509 35024 ft 434 kts 168°
2026-04-21 19:29 34.96982 -118.72595 35062 ft 435 kts 168°
2026-04-21 19:30 34.91431 -118.69707 35062 ft 436 kts 168°
2026-04-21 19:30 34.85843 -118.66800 35075 ft 437 kts 168°
2026-04-21 19:31 34.80257 -118.63895 35066 ft 436 kts 168°
2026-04-21 19:31 34.74688 -118.61004 35086 ft 435 kts 168°
2026-04-21 19:32 34.69118 -118.58113 35107 ft 435 kts 168°
2026-04-21 19:32 34.63580 -118.55078 35085 ft 439 kts 166°
2026-04-21 19:33 34.58084 -118.51793 35080 ft 441 kts 165°
2026-04-21 19:33 34.52593 -118.48487 35090 ft 440 kts 165°
2026-04-21 19:34 34.47084 -118.45249 35097 ft 440 kts 166°
2026-04-21 19:34 34.41559 -118.42045 35125 ft 440 kts 166°
2026-04-21 19:35 34.33312 -118.37255 35152 ft 440 kts 166°
2026-04-21 19:36 34.27783 -118.34032 35121 ft 442 kts 166°
2026-04-21 19:36 34.22234 -118.30802 35104 ft 442 kts 166°
2026-04-21 19:37 34.16682 -118.27580 35120 ft 443 kts 166°
2026-04-21 19:37 34.11111 -118.24358 35124 ft 443 kts 166°
2026-04-21 19:38 34.05550 -118.21143 35128 ft 443 kts 166°
2026-04-21 19:38 34.00925 -118.18477 35103 ft 443 kts 166°
2026-04-21 19:39 33.94445 -118.14755 35105 ft 444 kts 166°
2026-04-21 19:39 33.88864 -118.11541 35086 ft 445 kts 166°
2026-04-21 19:40 33.83273 -118.08320 35060 ft 446 kts 166°
2026-04-21 19:40 33.77790 -118.04640 35083 ft 465 kts 152°
2026-04-21 19:40 33.75345 -118.01995 35091 ft 477 kts 145°
2026-04-21 19:41 33.72981 -117.99177 35132 ft 478 kts 145°
2026-04-21 19:41 33.68284 -117.93587 35143 ft 478 kts 146°